Regional Weather Roundup
Issued by NWS

Home | Current Version | Previous Version | Graphics & Text | Print | Product List | Glossary On
Versions: 1 2 3 4 5 6 7 8 9 10 11 12 13 14 15 16 17 18 19 20 21 22 23 24 25 26 27 28 29 30 31 32 33 34 35 36 37 38 39 40 41 42 43 44 45 46 47 48 49 50
000
ASUS43 KBIS 071702
RWRND

NORTH DAKOTA REGIONAL WEATHER ROUNDUP
NATIONAL WEATHER SERVICE BISMARCK ND
1100 AM CST WED DEC 07 2016

NOTE: "FAIR" INDICATES FEW OR NO CLOUDS BELOW 12,000 FEET WITH NO
SIGNIFICANT WEATHER AND/OR OBSTRUCTIONS TO VISIBILITY.


NDZ001>003-009>011-017-071800-
NORTHWEST NORTH DAKOTA

CITY           SKY/WX    TMP DP  RH WIND       PRES   REMARKS
WILLISTON      CLOUDY    -1  -9  68 NW16      30.42R WCI -21
MINOT          BLWGSNOW   6   0  76 W36G48    30.19R VSB 3/4 WCI -19
MINOT AFB      HVY SNOW   3  -1  81 NW37G45   30.18R VSB 1/4 WCI -23
$$

NDZ018>021-031>035-040>046-071800-
SOUTHWEST NORTH DAKOTA

CITY           SKY/WX    TMP DP  RH WIND       PRES   REMARKS
BISMARCK       CLOUDY     5  -1  76 W23G38    30.27R WCI -17
DICKINSON      MIX PCPN  -1  -7  75 NW31G40   30.27R VSB 1   WCI -28
GARRISON         N/A      2  -3  80 NW35G45   30.22R WCI -25
HETTINGER ARPT MOSUNNY    2  -5  72 NW28G39   30.30R HAZE    WCI -22
$$

NDZ004>008-012>016-024-026-027-054-071800-
NORTHEAST NORTH DAKOTA

CITY           SKY/WX    TMP DP  RH WIND       PRES   REMARKS
GRAND FORKS    LGT SNOW  16  11  80 NW26      29.96R BLWGSNOWWCI  -3
GRND FRKS AFB  LGT SNOW  16  10  77 NW20G30   29.97R WCI  -1
DEVILS LAKE    SNOW       9   6  88 W31       30.03R VSB 1/2 WCI -14
$$

NDZ022-023-025-028>030-036>039-047>053-071800-
SOUTHEAST NORTH DAKOTA

CITY           SKY/WX    TMP DP  RH WIND       PRES   REMARKS
FARGO          CLOUDY    14   6  70 W25G39    30.03R HAZE    WCI  -5
JAMESTOWN      SNOW       9   5  84 NW33G44   30.09R VSB 1/2 WCI -15
$$




USA.gov is the U.S. government's official web portal to all federal, state and local government web resources and services.